Flag for Brazil Weather past 2 weeks in Ribeirão Prêto, São Paulo, Brazil

Now
66 °F

Sunny.


Feels Like: 66 °F
Forecast: 65 / 82 °F
Wind: 5 mph from Southeast

Location: Leite Lopes / Ribeir

Current Time: Apr 28, 2015 at 8:58:22 AM

Latest Report: Apr 28, 2015 at 8:00 AM


Visibility: 10 mi

Pressure: 30.04 "Hg

Humidity: 73%

Dew point: 57 °F

Location of Ribeirão PrêtoLocation

Historic Weather in Ribeirão Prêto — Graph

°F

Ribeirão Prêto temperature yesterday

Maximum temperature yesterday: 86 °F (at 4:00 PM)
Minimum temperature yesterday: 59 °F (at 4:00 AM)
Average temperature yesterday: 72 °F

Past Weeks' High & Low Weather Summary

 TemperatureHumidityPressure
High91 °F (Apr 18, 2:00 PM)100% (Apr 16, 7:00 AM)30.12 "Hg (Apr 16, 7:00 AM)
Low57 °F (Apr 26, 6:00 AM)35% (Apr 26, 3:00 PM)29.86 "Hg (Apr 20, 3:00 PM)
Average76 °F69%30.00 "Hg
* Reported Apr 13 7:00 AM — Apr 28 7:00 AM, Ribeirão Prêto, Weather by CustomWeather, © 2015

Note: Actual official high and low records may vary slightly from our data, if they occured in-between our weather recording intervals... More about our weather records

Advertising

Ribeirão Prêto weather history for previous 24 hours

 ConditionsComfort  
Time TempWeatherWind HumidityBarometerVisibility
7:00 AM
Tue, Apr 28
63 °FSunny.5 mph77%30.01 "Hg10 mi
6:00 AM63 °FSunny.3 mph83%29.98 "Hg10 mi
5:00 AM64 °FClear.3 mph78%29.98 "Hg10 mi
4:00 AM64 °FClear.No wind78%29.98 "Hg10 mi
3:00 AM64 °FClear.3 mph78%29.98 "Hg10 mi
2:00 AM68 °FClear.3 mph69%29.98 "Hg10 mi
1:00 AM68 °FClear.2 mph69%30.01 "Hg10 mi
12:00 AM70 °FClear.6 mph69%30.01 "Hg10 mi
11:00 PM
Mon, Apr 27
73 °FClear.5 mph61%30.01 "Hg10 mi
10:00 PM73 °FClear.3 mph61%30.01 "Hg10 mi
9:00 PM75 °FLight rain. Passing clouds.3 mph57%30.01 "HgN/A
8:00 PM77 °FClear.3 mph51%29.98 "Hg10 mi
7:00 PM75 °FClear.5 mph54%29.98 "Hg10 mi
6:00 PM81 °FPassing clouds.5 mph45%29.95 "HgN/A
5:00 PM84 °FPassing clouds.6 mph40%29.95 "HgN/A
4:00 PM86 °FScattered clouds.6 mph35%29.95 "HgN/A
3:00 PM82 °FPartly sunny.5 mph40%29.98 "HgN/A
2:00 PM84 °FPartly sunny.6 mph35%29.98 "HgN/A
1:00 PM84 °FScattered clouds.6 mph37%30.01 "HgN/A
12:00 PM82 °FSunny.8 mph42%30.04 "Hg10 mi
11:00 AM79 °FSunny.10 mph51%30.07 "Hg10 mi
10:00 AM73 °FSunny.12 mph57%30.09 "Hg10 mi
9:00 AM70 °FSunny.9 mph64%30.09 "Hg10 mi
8:00 AM64 °FSunny.5 mph78%30.07 "Hg10 mi
Weather by CustomWeather, © 2015

See weather overviewHow to use our weather pages